Погода в Хабаровке

Россия / Республика Алтай     50°41′08″N   86°17′18″E
темп.,
°C
ветер,
м/с
пор.,
м/с
влажн.,
%
обл.,
%
осадки,
мм/ч
давл.,
гПа
погр.,
м
7 мая, пт
пт701:00+9ююв2264100 0.0 101316
04:00+7юв226795 0.0 101313
07:00+8юв2262100 0.0 101355
10:00+15вюв123797 0.0 1010356
13:00+21ссз2629100 0.0 10081591
16:00+15сз5755100 0.1 10111170
19:00+11сз1188100 3.0 101493
22:00+9с2494100 4.4 1017273
8 мая, сб
сб801:00+7сз229698 5.7 101965
04:00+5сз11935 0.0 102123
07:00+5зсз01875 0.0 102286
10:00+10с115871 0.0 1020797
13:00+14ссз123726 0.0 10181287
16:00+15ссз33291 0.0 10161718
19:00+14ссз23360 0.0 10171046
22:00+8сз11610 0.0 101913
9 мая, вс
вс901:00+5сз11770 0.0 102013
04:00+4з00875 0.0 102110
07:00+5вюв01822 0.0 102175
10:00+12всв11515 0.0 1018617
13:00+16ссз222862 0.0 10151249
16:00+17ссз2324100 0.0 10141706
19:00+14с233971 0.0 1014347
22:00+8сз115379 0.0 101611
10 мая, пн
пн1001:00+6ююв116167 0.0 101510
04:00+5ююв116588 0.0 101411
07:00+6вюв1162100 0.0 101453
10:00+11вюв1145100 0.0 1011257
13:00+20ссв05234 0.0 10061773
16:00+20зюз6112587 0.0 10023377
19:00+17зюз611366 0.0 10032323
22:00+9юз11734 0.4 100620
11 мая, вт
вт1101:00+10ююз3475100 4.6 1005131
04:00+7в119374 3.8 1007126
07:00+6с2292100 5.1 1008325
10:00+3сз2396100 2.6 1012433
13:00+6зсз247363 3.3 1012994
16:00+8ссз455571 0.6 10121631
19:00+6ссз356170 0.9 10151225
22:00+2сз22815 0.1 101931